Regional Weather Roundup
Issued by NWS

Home | Current Version | Previous Version | Text Only | Print | Product List | Glossary Off
Versions: 1 2 3 4 5 6 7 8 9 10 11 12 13 14 15 16 17 18 19 20 21 22 23 24 25 26 27 28 29 30 31 32 33 34 35 36 37 38 39 40 41 42 43 44 45 46 47 48 49 50

032
ASUS43 KBIS 031702
RWRND

NORTH DAKOTA REGIONAL WEATHER ROUNDUP
NATIONAL WEATHER SERVICE BISMARCK ND
1200 PM CDT TUE MAY 03 2016

NOTE: "FAIR" INDICATES FEW OR NO CLOUDS BELOW 12,000 FEET WITH NO
SIGNIFICANT WEATHER AND/OR OBSTRUCTIONS TO VISIBILITY.


NDZ001>003-009>011-017-031800-
NORTHWEST NORTH DAKOTA

CITY           SKY/WX    TMP DP  RH WIND       PRES   REMARKS
WILLISTON      SUNNY     75  37  25 N7        30.06S
MINOT          SUNNY     73  29  19 N17G24    30.01S
MINOT AFB      SUNNY     68  31  25 N14G20    30.01R
$$

NDZ018>021-031>035-040>046-031800-
SOUTHWEST NORTH DAKOTA

CITY           SKY/WX    TMP DP  RH WIND       PRES   REMARKS
BISMARCK       SUNNY     71  38  29 NW15G24   30.00R
DICKINSON      SUNNY     72  33  24 N15       30.05R
GARRISON         N/A     71  35  26 N16G23    30.01R
HETTINGER ARPT SUNNY     71  32  23 N10       30.08S
$$

NDZ004>008-012>016-024-026-027-054-031800-
NORTHEAST NORTH DAKOTA

CITY           SKY/WX    TMP DP  RH WIND       PRES   REMARKS
GRAND FORKS    MOSUNNY   65  32  29 N28G39    29.88R
GRND FRKS AFB  SUNNY     65  30  27 N22G31    29.90R
DEVILS LAKE    SUNNY     62  29  28 N24G31    29.96R
$$

NDZ022-023-025-028>030-036>039-047>053-031800-
SOUTHEAST NORTH DAKOTA

CITY           SKY/WX    TMP DP  RH WIND       PRES   REMARKS
FARGO          SUNNY     72  32  23 N23G30    29.84S
JAMESTOWN      SUNNY     67  40  37 N21G28    29.91R
$$





USA.gov is the U.S. government's official web portal to all federal, state and local government web resources and services.